This demonstration page uses our WeatherBlox Daily Observations layout. Learn more.

Left ArrowRight Arrow

38.88101, -77.10428

Hourly Observations for December 29, 2019

Temp ( °F °C ) Dew Point ( °F °C ) Humidity (%) Winds ( mph kmh ) Pressure ( in mb ) Visibility ( mi km ) Precip ( " mm )
12:52 am 00:52 Mostly Cloudy 45 7.2 42 5.6 90 90 NE 7 11 30.20 1023 8 13 N/A
1:52 am 01:52 Mostly Cloudy 47 8.3 43 6.1 86 86 NNE 3 6 30.20 1023 8 13 N/A
2:52 am 02:52 Cloudy 46 7.8 43 6.1 89 89 NE 5 7 30.20 1023 7 11 N/A
3:52 am 03:52 Cloudy with Mist and Fog 45 7.2 42 5.6 90 90 NE 7 11 30.19 1023 6 10 N/A
4:52 am 04:52 Cloudy with Mist and Fog 47 8.3 43 6.1 86 86 NNE 3 6 30.20 1023 6 10 N/A
5:52 am 05:52 Cloudy with Mist and Fog 46 7.8 43 6.1 89 89 NE 5 7 30.19 1022 6 10 N/A
6:52 am 06:52 Cloudy with Mist and Fog 47 8.3 43 6.1 86 86 N 7 11 30.18 1022 6 10 N/A
7:52 am 07:52 Cloudy with Mist and Fog 46 7.8 43 6.1 89 89 NE 7 11 30.19 1022 5 8 N/A
8:52 am 08:52 Cloudy with Mist and Fog 48 8.9 44 6.7 86 86 NE 6 9 30.18 1022 4 6 N/A
9:52 am 09:52 Cloudy with Haze 50 10 45 7.2 83 83 N 5 7 30.19 1022 5 8 N/A
10:04 am 10:04 Cloudy with Light Rain 50 10 45 7.2 83 83 NNE 3 6 30.19 1022 4 6 0.00 0.00
10:35 am 10:35 Cloudy with Light Rain 49 9.4 46 7.8 90 90 NE 7 11 30.18 1022 3 4 0.01 0.25
10:52 am 10:52 Cloudy with Light Rain 49 9.4 47 8.3 93 93 NE 6 9 30.16 1022 3 4 0.02 0.51
11:11 am 11:11 Cloudy with Light Rain 49 9.4 47 8.3 93 93 NE 6 9 30.15 1021 2 3 0.02 0.51
11:31 am 11:31 Cloudy with Light Rain 50 10 48 8.9 93 93 NE 6 9 30.14 1021 2 2 0.06 1.52
11:42 am 11:42 Cloudy with Rain 50 10 48 8.9 93 93 NE 5 7 30.13 1020 1 2 0.08 2.03
11:52 am 11:52 Cloudy with Rain 50 10 49 9.4 96 96 NNE 5 7 30.12 1020 1 2 0.11 2.79
12:06 pm 12:06 Cloudy with Light Rain 50 10 49 9.4 96 96 NNE 5 7 30.11 1020 1 1 0.03 0.76
12:28 pm 12:28 Cloudy with Light Rain 50 10 49 9.4 96 96 ENE 6 9 30.09 1019 1 1 0.05 1.27
12:52 pm 12:52 Cloudy with Light Rain 51 10.6 51 10.6 100 100 N N/A 30.08 1019 1 1 0.07 1.78
1:06 pm 13:06 Cloudy with Light Rain 52 11.1 51 10.6 97 97 N N/A 30.07 1018 1 2 0.01 0.25
1:40 pm 13:40 Cloudy with Light Rain 52 11.1 51 10.6 97 97 N N/A 30.05 1018 1 1 0.03 0.76
1:52 pm 13:52 Cloudy with Light Rain 52 11.1 51 10.6 97 97 ENE 3 6 30.04 1017 0 0 0.03 0.76
2:16 pm 14:16 Cloudy with Light Rain 52 11.1 52 11.1 100 100 N N/A 30.04 1017 1 2 0.02 0.51
2:52 pm 14:52 Cloudy with Light Rain 52 11.1 52 11.1 100 100 ESE 5 7 30.03 1017 1 1 0.05 1.27
2:57 pm 14:57 Cloudy with Light Rain 52 11.1 52 11.1 100 100 SE 5 7 30.03 1017 1 2 0.01 0.25
3:10 pm 15:10 Cloudy with Light Rain 52 11.1 52 11.1 100 100 N N/A 30.03 1017 2 3 0.02 0.51
3:12 pm 15:12 Cloudy with Light Rain 53 11.7 52 11.1 96 96 ESE 3 6 30.03 1017 2 3 0.02 0.51
3:31 pm 15:31 Cloudy with Light Rain 51 10.6 51 10.6 100 100 ESE 3 6 30.03 1017 1 1 0.04 1.02
3:44 pm 15:44 Cloudy with Drizzle 52 11.1 51 10.6 97 97 ESE 3 6 30.02 1017 1 2 0.04 1.02
3:47 pm 15:47 Cloudy with Drizzle 52 11 52 11 100 100 ESE 3 6 30.02 1017 3 4 0.04 1.02
3:49 pm 15:49 Cloudy with Light Rain 52 11 52 11 100 100 SE 3 6 30.02 1017 3 5 0.04 1.02
3:52 pm 15:52 Cloudy with Light Rain 52 11.1 52 11.1 100 100 SE 5 7 30.02 1017 4 6 0.04 1.02
3:59 pm 15:59 Cloudy with Light Rain 52 11.1 51 10.6 97 97 ESE 5 7 30.02 1017 3 5 0.00 0.00
4:02 pm 16:02 Cloudy with Light Rain 52 11.1 51 10.6 97 97 ESE 3 6 30.02 1017 3 4 0.00 0.00
4:06 pm 16:06 Cloudy with Light Rain 52 11.1 52 11.1 100 100 ESE 3 6 30.02 1017 3 5 0.01 0.25
4:13 pm 16:13 Cloudy with Light Rain 51 10.6 51 10.6 100 100 SE 5 7 30.02 1017 2 3 0.01 0.25
4:15 pm 16:15 Cloudy with Light Rain 51 10.6 51 10.6 100 100 SE 6 9 30.01 1016 6 10 0.01 0.25
4:29 pm 16:29 Cloudy with Light Rain 52 11.1 51 10.6 97 97 SE 3 6 30.01 1016 7 11 0.01 0.25
4:52 pm 16:52 Cloudy 52 11.1 52 11.1 100 100 NE 3 6 30.00 1016 8 13 0.02 0.51
5:24 pm 17:24 Cloudy with Rain 51 10.6 50 10 96 96 ENE 3 6 29.99 1016 3 4 0.08 2.03
5:38 pm 17:38 Cloudy with Light Rain 51 10.6 51 10.6 100 100 ENE 3 6 29.99 1016 6 10 0.11 2.79
5:52 pm 17:52 Cloudy with Rain 51 10.6 51 10.6 100 100 NE 5 7 29.99 1016 6 10 0.13 3.30
6:12 pm 18:12 Cloudy with Light Rain 51 10.6 51 10.6 100 100 ENE 3 6 29.98 1015 2 2 0.05 1.27
6:18 pm 18:18 Cloudy with Light Rain 51 10.6 50 10 96 96 ENE 5 7 29.98 1015 1 1 0.06 1.52
6:30 pm 18:30 Cloudy with Light Rain 51 10.6 51 10.6 100 100 NE 6 9 29.97 1015 3 4 0.07 1.78
6:40 pm 18:40 Cloudy with Drizzle 51 10.6 51 10.6 100 100 NNE 5 7 29.97 1015 3 5 0.07 1.78
6:52 pm 18:52 Cloudy with Drizzle 51 10.6 51 10.6 100 100 NNE 5 7 29.97 1015 4 6 0.07 1.78
7:13 pm 19:13 Cloudy with Drizzle 51 10.6 51 10.6 100 100 NNE 3 6 29.97 1015 3 4 0.00 0.00
7:17 pm 19:17 Cloudy with Drizzle 51 10.6 51 10.6 100 100 NNE 3 6 29.97 1015 2 3 0.00 0.00
7:21 pm 19:21 Cloudy with Light Rain 51 10.6 50 10 96 96 NNE 3 6 29.96 1015 2 3 0.00 0.00
7:41 pm 19:41 Cloudy with Light Rain 50 10 50 10 100 100 ENE 6 9 29.95 1014 0 0 0.01 0.25
7:52 pm 19:52 Cloudy with Light Rain 50 10 50 10 100 100 NE 8 13 29.94 1014 0 0 0.01 0.25
8:15 pm 20:15 Cloudy with Light Rain 50 10 50 10 100 100 NE 7 11 29.94 1014 1 1 0.01 0.25
8:36 pm 20:36 Mostly Cloudy with Light Rain 50 10 50 10 100 100 NE 5 7 29.93 1014 1 1 0.02 0.51
8:52 pm 20:52 Cloudy with Drizzle 50 10 49 9.4 96 96 NE 8 13 29.92 1013 1 1 0.02 0.51
9:12 pm 21:12 Cloudy with Light Rain 50 10 49 9.4 96 96 NE 8 13 29.91 1013 1 2 0.01 0.25
9:20 pm 21:20 Cloudy with Mist and Fog 49 9.4 49 9.4 100 100 ENE 8 13 29.91 1013 1 1 0.01 0.25
9:23 pm 21:23 Cloudy with Drizzle 49 9.4 49 9.4 100 100 ENE 8 13 29.90 1013 1 1 0.01 0.25
9:47 pm 21:47 Cloudy with Drizzle 48 9 48 9 100 100 NE 8 13 29.89 1012 1 1 0.01 0.25
9:52 pm 21:52 Cloudy with Drizzle 49 9.4 49 9.4 100 100 NE 8 13 29.88 1012 1 1 0.01 0.25
10:31 pm 22:31 Cloudy with Light Rain 50 10 49 9.4 96 96 NE 7 11 29.87 1012 1 1 0.02 0.51
10:44 pm 22:44 Cloudy with Drizzle 50 10 50 10 100 100 NNE 6 9 29.86 1011 2 3 0.02 0.51
10:49 pm 22:49 Cloudy with Drizzle 50 10 50 10 100 100 N 6 9 29.86 1011 3 5 0.02 0.51
10:52 pm 22:52 Cloudy with Drizzle 50 10 50 10 100 100 N 5 7 29.86 1011 3 5 0.02 0.51
11:38 pm 23:38 Cloudy with Mist and Fog 50 10 50 10 100 100 NNE 6 9 29.83 1010 3 5 0.00 0.00
11:52 pm 23:52 Cloudy with Mist and Fog 51 10.6 51 10.6 100 100 N 6 9 29.82 1010 3 5 0.00 0.00

Powered by AerisWeather